Seattle, WA

11:58 AM PDT on April 29, 2017 (GMT -0700)
Seattle-Tacoma International

Weather History for KSEA - January, 2014

Change the Weather History Date:

Wednesday, January 29, 2014

  Actual Average Record
Temperature  
Mean Temperature 49 °F 43 °F  
Max Temperature 52 °F 49 °F 60 °F (1992)
Min Temperature 45 °F 37 °F 6 °F (1950)
Degree Days  
Heating Degree Days 16 22  
Month to date heating degree days 591 666  
Since 1 July heating degree days 2391 2604  
Cooling Degree Days 0 0  
Month to date cooling degree days 0 0  
Year to date cooling degree days 0 0  
Moisture  
Dew Point 45 °F    
Average Humidity 88    
Maximum Humidity 93    
Minimum Humidity 83    
Precipitation  
Precipitation 0.85 in 0.16 in 1.63 in (2004)
Month to date precipitation 3.61 5.26  
Year to date precipitation 3.61 5.26  
Snow  
Snow 0.00 in - 7.00 in (1969)
Month to date snowfall 0.0  
Since 1 July snowfall 1.1  
Snow Depth 0.00 in    
Sea Level Pressure  
Sea Level Pressure 29.77 in    
Wind  
Wind Speed 8 mph (South)    
Max Wind Speed 20 mph    
Max Gust Speed 25 mph    
Visibility 5 miles    
Events Rain    
T = Trace of Precipitation, MM = Missing Value Source: NWS Daily Summary

Daily Weather History Graph

Daily Weather History Graph

Search for Another Location

Airport or City:

Trip Planner

Search our weather history database for the weather conditions in past years. The results will help you decide how hot, cold, wet, or windy it might be!

Date:

Astronomy

Jan. 29, 2014 Rise Set
Actual Time 7:38 AM PST 5:06 PM PST
Civil Twilight 7:05 AM PST 5:39 PM PST
Nautical Twilight 6:28 AM PST 6:16 PM PST
Astronomical Twilight 5:52 AM PST 6:52 PM PST
Moon 6:20 AM PST 4:13 PM PST
Length of Visible Light 10h 33m
Length of Day
9h 27m
Waning Crescent, 2% of the Moon is Illuminated
Jan 29
Waning Crescent
Jan 30
New
Feb 6
First Quarter
Feb 14
Full
Feb 22
Last Quarter

Hourly Weather History & Observations

Time (PST) Temp. Windchill Dew Point Humidity Pressure Visibility Wind Dir Wind Speed Gust Speed Precip Events Conditions
12:37 AM 46.4 °F 45.2 °F 44.6 °F 93% 29.89 in 5.0 mi SW 3.5 mph - 0.10 in Rain Rain
12:46 AM 46.4 °F - 44.6 °F 93% 29.88 in 2.5 mi Calm Calm - 0.12 in Rain Rain
12:53 AM 46.0 °F - 44.1 °F 93% 29.90 in 2.0 mi Calm Calm - 0.13 in Rain Rain
1:04 AM 46.4 °F - 44.6 °F 93% 29.88 in 4.0 mi Calm Calm - 0.03 in Rain Rain
1:53 AM 45.0 °F 43.5 °F 43.0 °F 93% 29.87 in 5.0 mi SSE 3.5 mph - 0.14 in Rain Light Rain
2:53 AM 45.0 °F 41.2 °F 43.0 °F 93% 29.86 in 7.0 mi SE 6.9 mph - 0.08 in Rain Light Rain
3:38 AM 44.6 °F 39.2 °F 44.6 °F 100% 29.81 in 1.5 mi ESE 10.4 mph - 0.03 in Rain Light Rain
3:46 AM 44.6 °F 39.7 °F 44.6 °F 100% 29.82 in 3.0 mi SE 9.2 mph - 0.03 in   Overcast
3:53 AM 45.0 °F 40.6 °F 44.1 °F 97% 29.83 in 10.0 mi SE 8.1 mph - 0.03 in   Overcast
4:11 AM 46.4 °F 41.9 °F 44.6 °F 93% 29.81 in 10.0 mi SE 9.2 mph - N/A   Overcast
4:31 AM 46.4 °F 43.5 °F 44.6 °F 93% 29.81 in 3.0 mi SE 5.8 mph - 0.02 in Rain Light Rain
4:53 AM 46.0 °F 43.1 °F 44.1 °F 93% 29.83 in 3.0 mi ESE 5.8 mph - 0.03 in Rain Rain
5:28 AM 46.4 °F 43.5 °F 44.6 °F 93% 29.78 in 2.0 mi ESE 5.8 mph - 0.05 in Rain Light Rain
5:41 AM 46.4 °F 43.5 °F 44.6 °F 93% 29.78 in 3.0 mi ESE 5.8 mph - 0.06 in Rain Light Rain
5:53 AM 46.0 °F 41.9 °F 44.1 °F 93% 29.81 in 3.0 mi SE 8.1 mph - 0.06 in Rain Light Rain
6:00 AM 46.4 °F 42.9 °F 44.6 °F 93% 29.78 in 3.0 mi SE 6.9 mph - 0.01 in Rain Light Rain
6:53 AM 46.9 °F - 45.0 °F 93% 29.79 in 3.0 mi SSE 9.2 mph - 0.02 in Rain Light Rain
7:23 AM 46.4 °F 42.9 °F 44.6 °F 93% 29.77 in 3.0 mi South 6.9 mph - 0.01 in   Overcast
7:53 AM 48.0 °F - 46.0 °F 93% 29.78 in 4.0 mi SSE 8.1 mph - 0.01 in Rain Light Rain
7:58 AM 48.2 °F - 46.4 °F 93% 29.76 in 7.0 mi SE 8.1 mph - 0.00 in   Overcast
8:43 AM 48.2 °F - 46.4 °F 93% 29.73 in 3.0 mi SE 8.1 mph - 0.00 in Rain Light Rain
8:53 AM 50.0 °F - 46.9 °F 89% 29.75 in 4.0 mi SSE 8.1 mph - 0.00 in Rain Light Rain
9:31 AM 51.8 °F - 46.4 °F 82% 29.72 in 10.0 mi SSW 4.6 mph - 0.00 in   Overcast
9:53 AM 50.0 °F - 46.9 °F 89% 29.74 in 3.0 mi SSW 6.9 mph - 0.03 in Rain Rain
10:32 AM 51.8 °F - 48.2 °F 88% 29.70 in 9.0 mi South 10.4 mph - 0.00 in Rain Light Rain
10:53 AM 52.0 °F - 46.9 °F 83% 29.71 in 10.0 mi South 9.2 mph - 0.01 in Rain Light Rain
11:16 AM 51.8 °F - 48.2 °F 88% 29.68 in 5.0 mi South 10.4 mph - 0.00 in   Overcast
11:53 AM 51.1 °F - 46.9 °F 86% 29.69 in 7.0 mi SSW 8.1 mph - 0.00 in Rain Light Rain
12:53 PM 51.1 °F - 46.9 °F 86% 29.67 in 5.0 mi SSW 10.4 mph - 0.04 in Rain Light Rain
1:34 PM 51.8 °F - 48.2 °F 88% 29.63 in 7.0 mi SW 8.1 mph - 0.01 in   Overcast
1:53 PM 51.1 °F - 48.9 °F 92% 29.65 in 7.0 mi SSW 5.8 mph - 0.01 in   Overcast
2:15 PM 51.8 °F - 48.2 °F 88% 29.63 in 2.5 mi SW 5.8 mph - N/A   Overcast
2:53 PM 51.1 °F - 48.0 °F 89% 29.66 in 2.5 mi WSW 5.8 mph - 0.02 in Rain Light Rain
3:01 PM 50.0 °F - 48.2 °F 94% 29.65 in 2.0 mi WSW 6.9 mph - 0.01 in Rain Rain
3:24 PM 48.2 °F - 44.6 °F 87% 29.66 in 2.5 mi North 12.7 mph - 0.10 in Rain Light Rain
3:53 PM 46.9 °F - 44.1 °F 90% 29.70 in 2.5 mi North 12.7 mph - 0.12 in Rain Light Rain
4:04 PM 46.4 °F 41.1 °F 44.6 °F 93% 29.69 in 7.0 mi North 11.5 mph - 0.00 in Rain Light Rain
4:53 PM 46.9 °F - 44.1 °F 90% 29.73 in 10.0 mi North 15.0 mph - 0.01 in   Overcast
5:42 PM 46.4 °F 42.9 °F 42.8 °F 87% 29.75 in 10.0 mi NNW 6.9 mph - 0.00 in Rain Light Rain
5:53 PM 46.0 °F 42.5 °F 43.0 °F 89% 29.77 in 6.0 mi North 6.9 mph - 0.01 in Rain Light Rain
6:53 PM 46.0 °F 44.8 °F 43.0 °F 89% 29.78 in 10.0 mi North 3.5 mph - 0.09 in   Overcast
7:05 PM 46.4 °F - 42.8 °F 87% 29.77 in 10.0 mi Calm Calm - N/A   Overcast
7:22 PM 46.4 °F 43.5 °F 42.8 °F 87% 29.77 in 10.0 mi ENE 5.8 mph - N/A   Overcast
7:53 PM 46.9 °F - 43.0 °F 86% 29.81 in 10.0 mi Calm Calm - N/A   Overcast
8:35 PM 46.4 °F - 42.8 °F 87% 29.80 in 9.0 mi Calm Calm - 0.00 in Rain Light Rain
8:53 PM 46.0 °F 43.1 °F 44.1 °F 93% 29.82 in 10.0 mi South 5.8 mph - 0.00 in   Overcast
9:28 PM 46.4 °F 42.4 °F 44.6 °F 93% 29.81 in 2.0 mi SSW 8.1 mph - N/A   Overcast
9:30 PM 46.4 °F 41.9 °F 44.6 °F 93% 29.81 in 2.0 mi SSW 9.2 mph - N/A   Overcast
9:53 PM 46.0 °F 42.5 °F 44.1 °F 93% 29.84 in 2.0 mi South 6.9 mph - 0.00 in   Overcast
10:21 PM 46.4 °F 41.9 °F 42.8 °F 87% 29.81 in 4.0 mi South 9.2 mph - N/A   Overcast
10:53 PM 46.0 °F 41.0 °F 44.1 °F 93% 29.84 in 4.0 mi South 10.4 mph - 0.01 in Rain Light Rain
11:07 PM 46.4 °F 41.5 °F 44.6 °F 93% 29.82 in 4.0 mi SSW 10.4 mph - 0.01 in Rain Light Rain
11:53 PM 46.9 °F - 42.1 °F 83% 29.84 in 10.0 mi SSW 18.4 mph 25.3 mph 0.01 in   Overcast